Temperature
7 8 7 7 8 7 7 8 9 10 10 11 11 11 9 8 8 7 7 7 7 7 7 7 7 7 7 6 6 6 5 5 5 4 4 4 3 3 3 2 2 2 2 1
6 7 6 6 7 7 7 8 8 9 9 11 10 8 8 8 7 7 7 7 7 7 7 7 7 7 7 6 6 5 5 5 5 4 4 4 3 3 3 2 2 2 1 1
7 6 6 8 9 8 7 7 8 8 9 10 9 9 8 7 7 7 7 7 7 7 7 7 7 7 6 6 6 5 5 5 4 4 4 3 3 3 2 2 2 1 1 1
6 7 7 10 8 8 7 8 8 8 9 9 8 7 7 7 7 7 7 6 6 6 6 6 6 6 6 6 5 5 5 5 4 4 3 3 3 2 2 2 1 1 1 1
6 7 8 9 7 7 7 8 8 7 8 8 7 6 8 8 7 6 6 6 6 6 6 6 6 6 5 5 5 5 5 4 4 4 3 3 3 2 2 1 1 1 1 0
6 6 8 10 7 6 7 9 8 7 7 7 6 8 9 7 6 6 6 6 5 6 6 6 6 5 5 5 5 5 4 4 4 3 3 3 2 2 1 1 1 1 0 0
5 5 8 8 6 6 8 10 7 6 6 6 6 7 6 6 5 5 5 5 5 5 5 5 5 5 5 4 4 4 4 4 3 3 3 2 2 1 1 1 0 0 -0 -0
5 5 7 7 6 7 9 7 6 6 6 5 5 5 5 5 5 5 5 5 5 5 5 5 4 4 4 4 4 4 3 3 3 3 2 2 1 1 1 0 -0 -0 -1 -1
6 8 8 6 7 6 6 6 5 5 5 4 4 4 4 4 4 4 4 4 4 4 4 4 4 4 4 4 3 3 3 3 3 2 2 1 1 1 0 -0 -1 -1 -1 -1
5 6 6 6 6 5 5 5 5 4 4 4 3 3 4 4 4 4 4 4 4 4 4 4 4 4 4 3 3 3 3 2 2 2 2 1 1 0 -0 -0 -1 -1 -2 -2
5 6 6 6 5 5 5 5 4 4 4 3 3 3 3 3 3 3 3 3 3 3 3 3 3 3 3 3 3 2 2 2 2 1 1 1 0 -0 -0 -1 -1 -2 -2 -2
6 7 6 6 5 5 4 4 4 4 4 4 3 3 3 3 3 3 3 3 3 3 3 3 3 3 3 2 2 2 2 1 1 1 0 0 -0 -1 -1 -1 -2 -2 -2 -3
5 4 4 4 4 4 3 3 3 3 3 3 3 3 3 3 3 3 3 3 3 3 3 3 3 3 3 2 2 2 1 1 1 0 0 -0 -1 -1 -1 -2 -2 -2 -3 -3
4 3 3 3 3 3 3 3 3 3 3 3 3 3 3 3 3 3 3 3 3 3 2 2 2 2 2 2 2 1 1 1 0 -0 -0 -1 -1 -2 -2 -2 -3 -3 -3 -4
3 3 2 2 2 3 3 2 3 3 3 3 3 3 3 3 3 3 3 3 2 3 2 2 2 2 2 2 1 1 1 0 -0 -1 -1 -1 -2 -2 -2 -3 -3 -3 -4 -4
2 2 2 2 2 2 2 2 2 2 2 2 3 3 2 2 2 3 3 2 2 2 2 2 2 2 1 1 1 1 0 -0 -1 -1 -1 -2 -2 -3 -3 -3 -4 -4 -4 -5
1 1 1 1 2 2 2 2 2 2 2 2 2 2 2 2 2 2 2 2 2 2 2 2 2 1 1 1 0 0 -0 -0 -1 -1 -2 -2 -3 -3 -3 -4 -4 -4 -5 -5
1 1 1 1 1 1 2 2 2 2 2 2 2 2 2 2 2 2 2 1 1 2 2 1 1 1 1 0 -0 -0 -1 -1 -1 -2 -2 -3 -3 -4 -4 -4 -5 -5 -5 -5
2 2 1 1 1 1 1 2 2 2 2 2 1 1 1 1 1 1 1 1 1 1 1 1 0 0 0 -0 -1 -1 -1 -2 -2 -2 -3 -3 -4 -4 -4 -5 -5 -5 -5 -6
1 1 1 1 1 1 1 1 1 1 1 1 1 1 1 1 1 1 1 1 1 0 0 0 -0 -0 -0 -1 -1 -1 -2 -2 -2 -3 -3 -4 -4 -4 -5 -5 -5 -5 -6 -6
1 1 1 1 1 1 1 1 1 1 1 1 1 1 1 1 1 0 0 0 1 0 -0 -0 -1 -1 -1 -1 -2 -2 -2 -2 -3 -3 -4 -4 -4 -5 -5 -5 -5 -6 -6 -6
1 1 1 1 1 0 1 1 1 1 1 0 0 0 0 0 0 0 0 0 0 -0 -0 -1 -1 -1 -1 -2 -2 -2 -3 -3 -3 -4 -4 -4 -5 -5 -5 -5 -6 -6 -6 -6
0 0 0 0 0 -0 0 0 0 0 0 0 -0 -0 -0 -0 -0 -1 -0 0 -0 -1 -1 -1 -1 -2 -2 -2 -3 -3 -3 -3 -4 -4 -4 -5 -5 -5 -5 -6 -6 -6 -6 -6
-0 -0 -0 -0 -0 -1 -0 0 0 -0 -0 -0 -0 -0 -0 -1 -0 -0 -1 -1 -1 -1 -1 -1 -1 -2 -2 -3 -3 -3 -3 -4 -4 -4 -5 -5 -5 -5 -6 -6 -6 -6 -6 -7
-0 -1 -1 -0 -1 -1 -1 -0 -0 -0 -0 -0 -0 -0 -1 -1 -1 -1 -1 -1 -1 -1 -1 -2 -2 -2 -3 -3 -3 -4 -4 -4 -4 -5 -5 -5 -5 -6 -6 -6 -6 -6 -7 -7
-1 -1 -1 -1 -1 -1 -1 -1 -1 -1 -1 -1 -1 -1 -1 -1 -1 -1 -1 -1 -1 -2 -2 -2 -2 -2 -3 -3 -3 -4 -4 -4 -5 -5 -5 -5 -6 -6 -6 -6 -6 -6 -7 -7
-1 -1 -1 -1 -1 -1 -1 -1 -1 -1 -1 -1 -1 -1 -1 -1 -1 -1 -1 -2 -2 -2 -2 -2 -2 -3 -3 -3 -4 -4 -4 -5 -5 -5 -5 -6 -6 -6 -6 -6 -6 -7 -7 -7
Wind_Speed
9 9 9 12 13 13 16 14 11 12 14 16 14 13 12 11 10 10 9 8 8 8 8 8 8 7 7 7 7 8 8 8 9 8 7 6 6 5 5 5 5 5 5 5
6 6 8 13 17 18 18 19 20 22 21 16 11 8 8 9 9 9 9 9 9 9 9 9 8 8 7 7 7 8 9 9 8 7 7 7 6 6 5 5 5 5 5 5
5 5 9 10 10 12 10 12 12 15 12 9 9 9 10 10 9 9 9 10 10 10 9 9 8 8 8 7 6 8 9 8 8 8 8 7 7 6 7 6 6 6 5 5
5 7 7 1 2 5 9 10 13 13 12 10 10 11 11 11 9 9 10 11 11 10 10 9 8 7 7 6 7 8 9 9 8 8 8 7 7 7 7 6 6 6 6 6
3 5 9 6 3 4 6 6 7 11 12 10 9 10 9 6 5 9 11 12 11 11 10 9 8 7 7 7 7 8 9 9 8 8 8 8 8 8 7 6 6 6 5 6
4 5 6 2 2 3 2 4 1 3 6 8 7 9 9 6 9 12 12 11 11 10 9 9 7 6 7 8 8 9 9 9 8 8 8 9 8 8 6 6 6 5 5 6
9 8 9 5 3 4 3 2 1 3 7 9 9 11 13 14 14 13 13 12 11 10 9 8 7 6 8 8 10 9 8 8 8 8 9 8 7 6 6 6 6 6 6 6
7 8 8 4 6 5 4 4 6 9 10 11 13 15 15 14 14 13 13 12 10 9 9 8 6 7 9 10 9 7 7 7 8 8 7 6 7 6 6 6 6 6 6 6
9 9 3 4 6 6 6 8 10 11 12 13 15 15 15 14 14 13 12 11 9 9 10 9 7 8 10 9 7 7 7 8 8 8 7 7 7 7 6 6 6 6 5 5
9 12 12 11 11 11 10 12 13 13 13 13 15 15 15 13 13 12 12 10 9 9 10 10 8 8 10 8 7 7 8 8 7 7 7 7 6 6 6 6 6 6 6 6
12 13 12 10 9 10 11 11 13 13 12 12 13 14 13 12 12 11 11 10 9 9 10 11 9 9 8 7 7 8 8 8 7 7 7 7 7 7 8 8 7 7 6 6
13 11 10 12 10 11 11 12 12 12 12 11 11 12 12 12 11 11 10 9 9 10 10 11 10 9 8 7 7 8 8 8 6 6 6 6 6 6 9 9 10 11 10 8
14 12 13 14 13 11 11 12 11 11 11 12 11 10 11 11 10 10 10 10 10 10 11 11 10 10 9 7 8 9 9 8 6 6 6 6 6 6 5 6 9 11 11 11
13 12 13 12 11 11 11 11 10 10 10 10 10 10 9 10 10 10 11 10 10 10 11 11 10 11 9 7 8 10 9 9 8 7 7 7 7 7 6 6 5 5 7 9
10 10 11 11 11 10 9 8 9 9 9 9 8 8 9 10 11 12 11 10 10 10 11 10 11 11 8 7 8 9 8 7 7 7 7 7 6 6 6 6 6 5 4 5
8 8 9 10 11 10 9 8 8 10 10 10 10 10 10 10 11 12 11 9 10 11 11 11 11 10 7 7 8 8 8 9 8 6 6 6 6 6 6 6 6 6 6 5
8 8 7 8 9 9 8 9 9 10 11 11 12 11 11 11 12 12 11 10 10 12 12 11 11 9 7 8 8 7 6 7 9 7 6 7 6 7 7 6 6 6 6 6
8 8 8 8 9 10 10 10 10 11 11 11 11 11 11 11 12 13 12 11 11 12 11 10 9 8 7 8 7 6 6 6 6 7 7 6 7 6 7 7 7 7 6 6
6 7 8 9 10 10 10 11 11 11 11 11 11 11 12 12 13 12 11 11 11 13 10 8 8 8 8 8 7 6 6 7 6 7 6 8 7 7 7 7 7 7 6 6
6 7 8 10 10 10 11 11 11 11 11 10 11 12 13 13 11 11 11 11 11 10 9 9 8 7 7 7 8 6 7 7 7 7 7 7 7 7 7 7 7 7 6 6
8 9 10 11 11 11 11 11 11 12 12 10 11 13 13 13 12 10 10 11 10 8 8 9 7 6 6 6 7 6 7 7 7 7 7 7 7 7 7 7 7 7 7 6
9 10 11 12 12 13 12 11 12 13 13 12 12 12 12 13 12 11 11 10 10 9 7 7 6 7 7 8 6 7 7 8 7 7 7 8 8 8 8 8 7 7 7 7
11 11 12 13 13 13 14 13 13 12 13 13 13 13 13 12 10 10 11 8 7 9 8 7 9 10 11 7 6 7 8 8 8 8 8 8 8 8 7 8 7 7 7 6
13 13 13 13 12 13 15 15 12 11 12 13 13 13 12 11 10 9 9 10 11 12 9 10 12 12 11 7 7 7 8 8 8 8 8 7 7 7 7 7 7 6 6 7
13 13 13 12 12 12 13 13 12 12 12 11 12 12 10 9 9 10 9 9 11 11 9 10 12 12 8 7 7 7 7 8 8 7 7 7 7 7 7 7 7 6 6 6
13 13 13 13 12 12 11 11 11 11 10 11 11 10 9 8 9 9 9 9 11 11 9 8 7 8 7 7 7 7 7 7 8 8 8 7 8 7 7 7 8 7 6 6
13 13 12 12 12 11 10 10 11 12 11 10 11 11 9 9 8 8 9 8 8 8 7 7 6 6 6 6 6 7 6 6 7 7 7 7 7 7 7 7 6 6 5 5
Wind_Direction
267 269 260 257 250 229 223 231 246 260 267 278 292 299 298 299 299 300 298 297 293 289 285 278 269 261 253 245 231 221 220 224 228 228 227 227 230 235 242 249 256 260 264 270
276 262 266 266 256 244 241 242 249 263 275 284 293 292 295 301 303 301 299 300 299 294 286 279 272 266 257 248 233 221 223 227 225 222 221 222 226 230 236 243 248 251 256 264
280 306 298 270 251 225 221 224 232 246 256 281 289 294 302 304 300 297 301 302 301 296 287 280 275 268 259 251 237 225 228 229 223 220 220 222 223 228 232 237 242 247 253 259
292 308 258 255 119 207 224 243 232 246 264 276 287 298 294 285 283 292 303 304 301 296 290 283 277 269 259 246 233 228 230 229 223 219 222 223 224 229 233 236 240 247 253 257
263 282 281 284 221 194 220 269 237 242 264 284 299 298 286 271 278 295 298 297 294 290 284 278 272 264 253 242 234 231 233 231 225 219 220 221 224 229 230 232 238 244 251 256
235 258 263 303 136 164 215 267 188 230 291 306 307 300 306 309 304 302 300 297 295 293 285 275 271 261 248 245 238 237 237 235 228 221 221 223 226 227 226 227 235 241 247 251
232 247 268 274 161 165 244 331 27 297 306 301 289 289 303 306 302 300 299 296 294 288 279 273 269 256 250 248 245 244 241 235 227 222 222 224 224 222 221 222 230 235 244 248
206 225 254 176 159 209 294 325 303 306 304 298 292 295 299 300 298 297 297 294 292 286 280 276 263 248 251 253 254 248 238 232 228 225 221 219 218 218 217 219 227 235 241 248
211 229 267 184 229 277 295 294 299 302 302 300 296 294 298 299 296 296 295 293 290 284 282 278 264 247 252 259 255 244 236 233 229 223 219 217 216 216 215 218 226 233 236 245
252 261 265 267 271 275 280 286 293 296 298 296 292 293 296 296 295 294 293 291 288 282 279 278 273 260 257 261 252 240 236 233 227 221 219 217 216 216 216 217 223 229 234 242
257 272 284 273 267 278 290 294 294 296 295 292 290 290 293 293 292 291 291 291 285 278 277 278 279 270 264 256 241 237 236 233 227 223 222 221 220 220 221 225 228 231 235 239
258 270 277 288 292 294 292 295 299 300 298 296 290 288 290 289 288 289 288 290 286 281 279 280 278 273 267 253 236 233 234 231 226 221 222 222 224 230 228 233 237 239 244 247
265 280 281 285 289 288 291 295 297 294 291 293 293 289 288 288 288 288 287 285 283 282 281 281 277 272 266 250 234 231 233 231 225 221 220 221 221 225 233 229 230 237 241 244
266 273 277 278 284 293 293 293 294 289 286 283 286 288 287 286 287 286 286 287 286 284 281 278 274 271 266 248 235 233 233 229 223 222 220 220 220 223 225 228 231 233 234 239
264 258 267 282 288 291 294 292 292 292 293 293 291 288 287 287 288 289 290 291 288 282 278 276 272 271 266 244 234 234 231 226 221 220 218 219 219 220 222 225 232 238 238 236
279 276 271 274 281 288 290 290 291 294 297 296 295 292 289 287 288 288 288 287 285 284 284 279 273 272 264 241 233 231 229 223 217 217 216 216 215 217 220 222 227 232 236 237
269 273 271 276 282 287 285 283 282 285 289 289 290 293 293 292 291 290 291 290 284 281 279 274 272 272 256 236 228 226 225 219 212 215 218 216 215 218 220 222 226 232 237 235
248 259 268 271 275 281 286 286 283 283 283 285 290 291 288 288 289 292 296 299 295 289 281 272 267 264 252 238 227 224 220 216 212 215 217 216 218 219 220 223 227 233 239 239
255 261 270 271 270 272 276 278 280 281 282 284 284 284 283 281 281 284 290 290 287 288 288 280 265 258 252 238 224 222 220 218 216 217 217 218 221 221 221 224 228 230 234 235
274 275 276 277 273 267 271 276 279 281 280 278 279 282 283 282 282 283 284 280 272 271 279 281 275 264 253 240 224 223 219 219 219 219 216 217 220 222 222 225 227 230 232 234
276 279 280 281 282 279 274 275 277 279 282 279 276 277 280 283 282 279 278 281 279 272 272 268 264 260 251 240 226 226 222 221 220 219 219 219 221 222 223 225 227 229 232 235
273 277 279 280 282 284 283 280 277 278 281 280 276 274 277 280 281 276 266 263 273 272 274 270 264 254 247 246 236 228 223 222 221 221 221 221 222 223 225 226 228 230 231 234
276 278 279 278 278 281 285 283 277 275 275 276 276 275 274 275 276 274 278 272 269 267 268 266 259 254 253 248 240 231 226 223 223 222 223 223 223 224 226 228 229 230 231 232
277 278 277 278 279 279 280 282 279 274 272 274 272 268 269 274 276 264 261 269 268 268 268 263 259 257 253 246 239 234 230 227 226 225 224 224 224 224 225 226 228 229 230 233
272 274 276 275 275 275 276 279 282 281 279 278 276 272 264 257 261 272 272 269 266 268 270 263 258 256 250 243 237 235 233 230 227 224 223 223 223 224 225 225 225 227 229 231
271 274 275 273 272 275 277 277 278 279 280 281 283 279 273 266 261 264 267 265 263 264 264 262 256 251 243 237 236 234 233 233 231 227 223 223 224 224 225 224 225 226 229 231
273 274 276 277 274 268 265 266 268 272 272 272 279 282 279 276 272 268 266 267 266 264 262 258 253 247 242 238 236 234 232 228 223 221 221 221 221 222 223 222 224 224 226 229
Height
1531 1530 1530 1527 1525 1527 1527 1520 1515 1503 1502 1498 1501 1502 1502 1500 1499 1497 1495 1493 1492 1490 1488 1487 1486 1484 1483 1482 1481 1480 1479 1479 1478 1478 1478 1477 1476 1475 1474 1472 1470 1469 1467 1466
1531 1529 1529 1525 1519 1519 1519 1517 1512 1507 1503 1498 1500 1500 1499 1497 1496 1493 1492 1490 1488 1486 1484 1483 1481 1480 1478 1477 1476 1475 1474 1474 1474 1473 1473 1472 1472 1471 1469 1468 1466 1465 1463 1462
1525 1526 1525 1512 1504 1508 1510 1507 1507 1504 1499 1497 1498 1497 1496 1494 1492 1490 1489 1487 1484 1482 1480 1478 1477 1475 1474 1473 1472 1470 1470 1469 1469 1468 1468 1467 1467 1466 1465 1463 1462 1461 1459 1458
1529 1525 1518 1500 1504 1504 1504 1502 1502 1500 1497 1497 1497 1495 1493 1491 1489 1487 1486 1483 1481 1478 1476 1474 1472 1470 1469 1468 1467 1466 1465 1464 1464 1463 1463 1462 1462 1461 1460 1459 1457 1456 1455 1453
1531 1522 1507 1498 1502 1503 1503 1497 1496 1497 1496 1495 1494 1492 1488 1487 1486 1484 1482 1480 1477 1474 1472 1469 1467 1466 1464 1462 1461 1460 1459 1459 1458 1458 1458 1457 1456 1456 1455 1454 1453 1451 1450 1449
1529 1525 1508 1496 1501 1502 1503 1494 1494 1495 1494 1494 1493 1488 1483 1484 1482 1479 1477 1474 1471 1469 1466 1464 1462 1461 1459 1457 1456 1455 1454 1454 1453 1453 1452 1452 1451 1451 1450 1449 1448 1447 1446 1444
1527 1522 1503 1497 1500 1502 1498 1491 1494 1493 1492 1491 1490 1487 1483 1480 1477 1474 1471 1469 1466 1463 1461 1459 1457 1455 1453 1452 1451 1450 1449 1448 1447 1447 1447 1446 1446 1445 1445 1444 1443 1442 1441 1440
1520 1519 1504 1495 1498 1496 1492 1492 1492 1491 1489 1487 1484 1481 1478 1474 1471 1468 1466 1463 1461 1458 1455 1454 1452 1450 1448 1446 1446 1444 1443 1442 1441 1441 1441 1441 1440 1440 1439 1439 1438 1437 1436 1435
1505 1497 1492 1493 1492 1492 1491 1490 1488 1487 1485 1482 1479 1475 1472 1469 1466 1463 1461 1458 1455 1452 1450 1448 1446 1444 1442 1441 1440 1438 1437 1436 1436 1435 1435 1435 1434 1434 1434 1433 1433 1432 1431 1430
1500 1491 1490 1490 1489 1488 1488 1486 1484 1482 1479 1477 1473 1470 1466 1463 1460 1458 1455 1453 1450 1447 1444 1442 1441 1439 1437 1436 1434 1432 1431 1430 1430 1429 1429 1429 1428 1428 1428 1428 1427 1427 1426 1425
1493 1487 1486 1484 1484 1483 1482 1481 1478 1476 1474 1471 1468 1464 1461 1458 1455 1452 1450 1447 1445 1442 1439 1437 1435 1433 1432 1430 1428 1426 1425 1425 1424 1424 1423 1423 1422 1422 1422 1422 1422 1421 1421 1420
1483 1482 1483 1480 1480 1479 1477 1475 1473 1470 1467 1465 1463 1459 1456 1453 1450 1447 1444 1442 1439 1437 1434 1432 1430 1427 1426 1424 1422 1421 1419 1419 1418 1418 1417 1417 1417 1416 1416 1417 1416 1416 1415 1415
1479 1478 1478 1476 1475 1474 1472 1470 1467 1465 1462 1460 1457 1455 1451 1448 1445 1442 1440 1437 1434 1432 1429 1426 1424 1422 1420 1418 1416 1415 1414 1413 1412 1412 1412 1411 1411 1410 1410 1410 1410 1410 1410 1409
1475 1475 1472 1470 1469 1468 1466 1464 1462 1460 1458 1455 1453 1450 1447 1444 1441 1438 1435 1432 1429 1426 1423 1421 1418 1416 1414 1412 1410 1409 1408 1407 1407 1406 1406 1406 1405 1405 1405 1405 1404 1404 1404 1403
1469 1469 1467 1465 1464 1463 1461 1459 1457 1454 1452 1450 1448 1445 1442 1439 1436 1433 1430 1427 1424 1420 1417 1414 1412 1410 1408 1406 1404 1403 1402 1401 1401 1400 1400 1400 1400 1400 1399 1399 1399 1399 1399 1398
1464 1463 1462 1461 1459 1458 1456 1454 1452 1450 1448 1445 1443 1440 1437 1434 1430 1427 1424 1421 1418 1414 1411 1408 1405 1404 1402 1400 1398 1397 1396 1396 1395 1395 1394 1394 1394 1394 1394 1394 1393 1393 1393 1393
1459 1457 1457 1455 1454 1453 1452 1450 1448 1445 1443 1440 1438 1435 1431 1428 1425 1421 1418 1415 1412 1408 1405 1402 1399 1397 1395 1394 1392 1391 1390 1390 1390 1389 1389 1389 1388 1388 1388 1388 1388 1388 1388 1388
1454 1453 1452 1451 1450 1448 1447 1445 1443 1441 1438 1435 1432 1429 1426 1422 1419 1415 1412 1409 1405 1402 1399 1397 1394 1391 1389 1388 1386 1385 1384 1384 1383 1383 1383 1383 1383 1383 1383 1383 1383 1382 1382 1382
1450 1449 1448 1447 1446 1444 1442 1439 1437 1435 1432 1429 1426 1423 1419 1416 1413 1409 1406 1402 1399 1395 1392 1390 1388 1385 1384 1382 1381 1379 1378 1378 1378 1377 1377 1377 1377 1377 1377 1377 1377 1377 1377 1376
1446 1445 1444 1442 1441 1439 1436 1434 1431 1428 1426 1423 1419 1416 1412 1409 1407 1403 1400 1396 1393 1390 1386 1384 1381 1379 1378 1376 1375 1374 1373 1372 1372 1371 1371 1371 1371 1371 1371 1371 1371 1371 1371 1371
1442 1441 1439 1437 1434 1432 1430 1427 1424 1421 1418 1416 1412 1409 1405 1402 1400 1396 1393 1389 1386 1384 1381 1378 1376 1374 1372 1370 1369 1368 1367 1367 1366 1366 1365 1365 1365 1365 1366 1366 1366 1366 1366 1365
1437 1435 1432 1430 1427 1425 1422 1420 1417 1414 1410 1408 1405 1401 1398 1395 1392 1389 1386 1383 1380 1377 1374 1372 1370 1368 1366 1364 1363 1362 1361 1361 1360 1360 1360 1359 1360 1360 1360 1360 1360 1360 1360 1360
1430 1428 1425 1422 1420 1417 1414 1412 1409 1406 1402 1399 1396 1393 1390 1387 1384 1381 1378 1376 1373 1371 1368 1366 1364 1362 1360 1359 1357 1356 1355 1355 1354 1354 1354 1354 1354 1354 1354 1355 1355 1355 1355 1355
1422 1419 1417 1414 1411 1408 1405 1402 1400 1397 1394 1391 1388 1385 1382 1379 1376 1374 1371 1368 1366 1364 1361 1359 1358 1356 1354 1352 1351 1350 1349 1349 1348 1348 1348 1348 1348 1348 1349 1349 1349 1349 1349 1349
1413 1411 1408 1405 1402 1399 1396 1394 1391 1388 1386 1382 1379 1377 1375 1372 1369 1366 1364 1361 1359 1357 1355 1353 1351 1349 1348 1346 1345 1344 1343 1343 1342 1342 1342 1342 1342 1343 1343 1344 1344 1344 1344 1344
1404 1401 1399 1396 1394 1391 1388 1385 1382 1379 1377 1374 1371 1369 1366 1364 1361 1359 1356 1354 1352 1350 1348 1346 1344 1343 1341 1340 1339 1338 1337 1337 1337 1336 1336 1337 1337 1337 1338 1339 1339 1339 1339 1339
1394 1391 1388 1386 1383 1381 1379 1377 1374 1371 1369 1366 1363 1360 1359 1356 1354 1352 1349 1347 1345 1343 1341 1340 1338 1336 1335 1334 1333 1332 1331 1331 1331 1331 1331 1331 1332 1332 1333 1334 1334 1334 1334 1334